GEFSSGP_con_probscp_072.txt.gz
Probability
0 0 0 0 0 0 0 0 0 0 0 0 0 0 0 1 1 1 8 37 76 90 88 87 77 56 33 14 3 0 0 0 0 0 0 0 0 0 0 0 0 0 0 0 0 0 0 0 0
0 0 0 0 0 0 0 0 0 0 0 0 0 0 0 1 1 4 20 54 81 87 86 88 83 67 45 24 9 2 1 1 1 0 0 0 0 0 0 0 0 0 0 0 0 0 0 0 0
0 0 0 0 0 0 0 0 0 0 0 0 0 1 2 2 3 12 38 68 84 83 84 89 89 78 62 41 20 7 4 3 2 2 1 1 0 0 0 0 0 0 0 0 0 0 0 0 0
0 0 0 0 0 0 0 0 0 0 0 0 0 4 7 6 10 25 47 70 79 76 76 82 86 81 70 55 34 16 8 4 2 2 2 1 0 0 0 0 0 0 0 0 0 0 0 0 0
0 0 0 0 0 0 0 0 0 0 0 0 2 10 17 16 20 32 45 62 70 66 63 66 74 75 70 61 46 29 16 9 5 4 3 2 1 1 1 0 0 0 0 0 0 0 0 0 0
0 0 0 0 0 0 0 0 0 0 0 0 4 15 23 24 24 27 34 45 55 57 50 47 54 62 63 59 51 38 26 17 12 8 6 5 4 3 2 1 0 0 0 0 0 0 0 0 0
0 0 0 0 0 0 0 0 0 0 0 0 4 17 28 29 22 17 20 28 42 49 39 29 32 41 47 47 42 36 29 23 17 12 10 8 5 3 2 1 0 0 0 0 0 0 0 0 0
0 0 0 0 0 0 0 0 0 0 0 0 5 20 34 32 18 10 12 21 34 41 30 16 16 21 25 25 24 24 23 20 16 12 9 6 3 2 1 1 1 0 0 0 0 0 0 0 0
0 0 0 0 0 0 0 0 0 0 0 1 8 23 35 28 14 8 13 22 32 35 25 11 8 8 8 7 8 11 13 12 10 6 4 3 1 1 1 2 3 2 0 0 0 0 0 0 0
0 0 0 0 0 0 0 0 0 0 0 2 11 25 30 22 12 9 15 26 35 35 22 10 5 4 2 2 3 3 4 4 3 2 1 1 0 1 2 4 6 5 2 0 0 0 0 0 0
0 0 0 0 0 0 0 0 0 0 0 1 11 24 26 18 11 11 19 31 40 37 21 10 8 5 5 5 3 0 0 0 0 1 1 0 0 1 2 6 8 6 2 1 1 1 1 0 0
0 0 0 0 0 0 0 0 0 0 0 1 9 20 23 15 10 15 25 37 46 38 21 13 15 16 19 18 8 2 1 1 2 4 4 2 1 2 4 8 10 7 3 4 4 4 3 2 1
0 0 0 0 0 0 0 0 0 0 0 1 7 15 18 13 13 22 34 45 51 42 25 21 28 39 46 40 23 11 8 8 10 14 12 7 6 8 11 17 19 13 11 15 16 13 13 14 13
0 0 0 0 0 0 0 0 0 0 1 3 8 14 17 18 22 33 45 53 56 48 35 35 48 65 70 58 40 25 18 17 22 27 24 17 17 22 27 32 32 27 28 35 36 33 33 35 35
0 0 0 0 0 0 0 1 2 2 3 6 12 18 24 30 36 45 55 61 62 57 50 49 59 74 77 64 47 32 24 26 35 43 41 34 35 43 48 48 46 45 48 54 56 54 52 53 53
0 0 0 0 0 0 0 3 5 6 7 11 18 26 35 42 48 54 61 66 68 68 68 63 62 70 72 64 51 37 33 41 51 57 56 52 52 59 64 63 62 63 65 66 66 65 64 64 63
0 0 0 0 0 0 2 6 9 11 13 18 26 36 44 50 56 63 68 73 77 79 80 75 70 72 71 65 57 50 50 59 64 64 62 62 63 67 72 73 73 73 74 73 71 71 71 68 65
0 0 0 0 1 3 7 13 18 22 26 31 36 44 49 53 61 67 72 77 81 84 84 82 80 80 77 71 65 61 63 67 68 66 64 66 68 71 73 74 74 72 72 72 70 68 64 55 49
0 0 0 1 3 7 14 23 31 38 42 44 46 48 50 54 59 65 70 75 76 78 80 80 81 82 80 77 73 69 68 67 68 67 64 63 65 66 66 65 64 62 60 58 55 50 43 33 27
0 0 1 1 4 11 20 30 40 45 47 46 48 50 50 49 52 56 60 64 65 65 67 69 72 75 77 76 75 74 71 67 64 61 56 51 50 51 51 50 48 45 42 38 34 31 26 19 14
0 0 0 1 3 9 17 26 34 39 42 43 44 46 44 42 43 45 46 47 49 50 51 53 58 63 67 72 73 72 69 63 55 48 40 34 31 31 31 30 28 27 25 22 20 18 16 13 11
0 0 0 0 1 4 7 12 21 31 40 41 38 37 37 35 33 33 31 30 30 31 33 35 39 42 49 58 64 63 57 50 41 32 24 19 15 12 12 13 12 12 11 10 9 9 10 10 9
0 0 0 0 0 0 1 4 12 26 37 38 32 31 30 26 23 20 19 17 16 16 18 18 19 21 26 35 43 45 40 32 24 18 13 10 6 4 4 4 3 3 3 3 3 5 7 7 7
0 0 0 0 0 0 0 5 15 25 31 31 28 25 22 18 14 12 10 10 9 9 9 8 8 9 11 14 19 21 21 17 12 10 8 5 3 2 2 2 1 1 0 0 2 3 4 4 4
0 0 0 0 0 0 3 12 25 32 30 26 22 17 13 10 8 7 6 6 5 4 4 4 4 4 4 4 5 6 6 7 6 4 4 3 1 1 1 1 0 0 0 0 1 2 2 2 1
0 0 0 0 0 1 8 23 38 40 31 21 14 10 6 4 3 2 2 2 2 1 1 1 1 1 1 1 1 1 1 1 1 1 1 1 0 0 0 0 0 0 0 0 1 1 1 1 0
0 0 0 0 0 1 9 26 38 36 26 15 8 4 2 0 0 0 0 0 0 0 0 0 0 0 0 0 0 0 0 0 0 0 0 0 0 0 0 0 0 0 0 0 0 0 0 0 0
0 0 0 0 0 0 4 14 23 25 17 8 3 1 0 0 0 0 0 0 0 0 0 0 0 0 0 0 0 0 0 0 0 0 0 0 0 0 0 0 0 0 0 0 0 0 0 0 0
0 0 0 0 0 0 0 3 9 13 10 4 0 0 0 0 0 0 0 0 0 0 0 0 0 0 0 0 0 0 0 0 0 0 0 0 0 0 0 0 0 0 0 0 0 0 0 0 0
0 0 0 0 0 0 0 1 5 8 6 3 1 0 0 0 0 0 0 0 0 0 0 0 0 0 0 0 0 0 0 0 0 0 0 0 0 0 0 0 0 0 0 0 0 0 0 0 0

GEFSSGP_con_probscp_078.txt.gz
Probability
0 0 0 0 0 0 0 0 0 0 0 0 0 0 1 2 1 0 1 5 14 20 17 12 10 9 7 6 5 4 3 3 3 3 2 2 1 0 0 0 0 0 0 0 0 0 0 0 0
0 0 0 0 0 0 0 0 0 0 0 0 0 1 2 3 2 1 3 10 22 27 24 18 15 13 11 9 8 6 3 2 2 2 1 1 0 0 0 0 0 0 0 0 0 0 0 0 0
0 0 0 0 0 0 0 0 0 0 0 0 0 1 2 3 3 5 12 23 33 36 33 30 27 23 19 15 11 7 4 2 2 2 1 0 0 0 0 0 0 0 0 0 0 0 0 0 0
0 0 0 0 0 0 0 0 0 0 0 0 0 1 3 5 9 18 29 37 43 43 40 39 38 33 29 24 17 10 5 3 2 1 0 0 0 0 0 0 0 0 0 0 0 0 0 0 0
0 0 0 0 0 0 0 0 0 0 0 0 0 3 5 11 22 36 44 45 48 50 46 44 43 41 37 30 22 14 8 3 1 0 0 0 0 0 0 0 0 0 0 0 0 0 0 0 0
0 0 0 0 0 0 0 0 0 0 0 1 2 5 8 16 30 43 48 48 52 56 52 46 42 39 36 31 24 18 9 3 0 0 0 0 0 0 0 0 0 0 0 0 0 0 0 0 0
0 0 0 0 0 0 0 0 0 0 1 3 6 9 11 17 30 41 47 50 52 56 54 45 34 28 26 24 21 16 9 2 0 0 0 0 0 0 0 0 0 0 0 0 0 0 0 0 0
0 0 0 0 0 0 0 0 0 0 1 4 9 13 16 23 35 47 55 54 50 49 49 43 32 23 18 16 15 12 8 3 1 1 1 1 0 0 0 0 0 0 0 0 0 0 0 0 0
0 0 0 0 0 0 0 0 0 0 0 4 11 17 24 37 49 60 67 62 51 43 40 39 35 27 18 13 12 11 8 6 3 2 2 1 0 0 0 0 0 0 0 0 0 0 0 0 0
0 0 0 0 0 0 0 0 0 0 1 4 12 21 34 47 58 68 72 65 53 41 33 33 33 29 21 15 14 13 9 6 4 3 2 1 0 0 0 0 0 0 0 0 0 0 0 0 0
0 0 0 0 0 0 0 0 0 0 1 5 14 27 40 48 55 63 66 61 52 40 31 28 29 27 22 18 16 14 9 5 3 2 2 1 0 0 0 0 0 0 0 0 0 0 0 0 0
0 0 0 0 0 0 0 0 1 2 3 7 17 30 39 42 47 54 57 54 46 37 31 29 27 23 19 16 13 11 7 3 1 1 1 0 0 0 0 0 0 0 0 0 0 0 0 0 0
0 0 0 0 0 0 0 0 1 4 8 13 23 31 34 35 41 48 54 53 45 36 32 31 26 21 16 11 8 6 4 1 0 0 0 0 0 0 0 0 0 0 0 0 0 0 0 0 0
0 0 0 0 0 1 2 2 2 5 10 19 28 32 31 33 38 47 55 56 47 37 32 30 26 20 14 8 4 2 1 0 0 0 0 0 0 0 0 0 0 0 0 0 0 0 0 0 0
0 0 0 0 0 1 3 5 5 5 11 21 29 34 36 37 39 46 53 53 45 36 31 28 25 21 15 9 5 3 2 1 0 0 0 1 1 0 0 0 0 0 0 0 0 0 0 0 0
0 0 0 0 0 1 4 7 7 8 16 26 31 36 40 41 41 42 45 45 42 37 34 31 29 26 22 17 12 10 9 5 2 1 2 3 2 1 1 1 1 1 0 1 1 1 0 0 0
0 0 0 0 0 1 5 9 10 13 21 30 34 37 40 42 40 38 40 40 39 38 38 38 36 33 31 27 24 21 18 12 7 7 7 7 7 5 4 4 3 2 2 2 2 1 0 0 0
0 0 0 0 0 3 8 13 15 17 22 28 33 37 39 39 36 34 35 35 35 38 41 42 41 39 37 38 36 31 25 18 13 12 12 11 11 11 9 9 7 4 3 2 1 0 0 0 0
0 0 0 0 2 7 15 21 22 23 24 27 32 37 36 32 29 28 29 29 30 34 38 38 37 37 38 41 41 35 28 21 16 14 12 12 12 11 11 11 8 5 3 1 0 0 0 0 0
0 0 0 1 3 10 20 26 27 27 26 25 27 28 27 24 21 21 22 22 21 24 28 28 27 28 29 32 34 31 26 20 15 11 8 7 7 7 8 7 6 3 1 0 0 0 1 1 0
0 0 0 1 3 7 13 18 21 24 24 21 19 18 18 17 16 15 16 15 12 13 15 16 17 17 18 20 23 25 22 16 10 6 3 2 3 3 3 3 3 2 0 0 0 0 1 1 1
0 0 0 0 1 2 4 6 10 16 20 18 15 13 13 13 11 10 10 9 7 6 7 10 12 12 12 13 17 20 17 11 5 2 0 0 1 1 1 1 1 1 0 0 0 0 1 1 0
0 0 0 0 0 0 0 1 4 9 14 14 12 11 10 9 6 5 4 4 4 4 4 6 9 10 10 10 11 12 10 6 2 0 0 0 0 0 0 0 0 0 0 0 0 0 0 0 0
0 0 0 0 0 0 0 0 1 4 8 9 9 8 7 4 2 1 1 1 3 3 3 4 6 7 7 6 5 4 3 2 1 0 0 0 0 0 0 0 0 0 0 0 0 0 0 0 0
0 0 0 0 0 0 0 0 1 3 4 6 6 4 2 1 0 0 0 1 2 2 2 2 3 3 3 2 2 1 0 0 0 0 0 0 0 0 0 0 0 0 0 0 0 0 0 0 0
0 0 0 0 0 0 0 0 2 3 3 3 2 1 0 0 0 0 0 0 1 1 1 1 1 1 0 1 1 0 0 0 0 0 0 0 0 0 0 0 0 0 0 0 0 0 0 0 0
0 0 0 0 0 0 0 0 2 2 1 0 0 0 0 0 0 0 0 0 0 0 0 0 0 0 0 0 0 0 0 0 0 0 0 0 0 0 0 0 0 0 0 0 0 0 0 0 0
0 0 0 0 0 0 0 0 1 1 0 0 0 0 0 0 0 0 0 0 0 0 0 0 0 0 0 0 0 0 0 0 0 0 0 0 0 0 0 0 0 0 0 0 0 0 0 0 0
0 0 0 0 0 0 0 0 0 0 0 0 0 0 0 0 0 0 0 0 0 0 0 0 0 0 0 0 0 0 0 0 0 0 0 0 0 0 0 0 0 0 0 0 0 0 0 0 0
0 0 0 0 0 0 0 0 0 0 0 0 0 0 0 0 0 0 0 0 0 0 0 0 0 0 0 0 0 0 0 0 0 0 0 0 0 0 0 0 0 0 0 0 0 0 0 0 0

GEFSSGP_con_probscp_084.txt.gz
Probability
0 0 0 0 0 0 0 0 0 0 0 0 1 2 3 2 1 1 1 1 5 13 16 12 7 6 10 18 23 26 27 24 20 16 13 10 6 4 4 4 4 4 5 5 6 6 6 5 4
0 0 0 0 0 0 0 0 0 1 1 0 1 2 3 2 2 2 2 2 8 17 20 15 11 11 15 19 23 26 27 25 21 17 13 11 9 7 5 4 4 6 7 6 6 6 6 4 2
0 0 0 0 0 0 0 0 0 1 2 1 1 3 3 2 4 5 5 6 13 21 21 17 17 20 22 24 25 26 28 28 25 20 16 15 14 11 8 6 5 6 7 7 6 5 3 2 1
0 0 0 0 0 0 0 0 0 1 2 2 2 3 3 4 5 6 9 14 21 24 22 20 24 28 30 31 29 28 29 31 30 26 22 20 18 13 10 8 6 5 5 4 3 2 1 0 0
0 0 0 0 0 0 0 0 0 0 2 3 3 3 5 7 8 8 14 23 30 31 28 30 34 34 33 33 36 36 33 32 33 31 29 24 17 12 10 7 6 4 3 2 1 0 0 0 0
0 0 0 0 0 0 0 0 0 1 3 4 4 3 7 12 14 16 21 29 38 41 41 42 41 34 30 33 41 43 37 33 32 32 30 24 14 10 8 6 5 3 1 1 1 1 1 2 1
0 0 0 0 0 0 0 0 0 1 3 5 5 4 8 17 24 27 31 38 48 54 53 50 43 33 29 33 40 42 38 33 30 27 23 17 11 8 6 4 3 2 1 2 2 2 3 3 3
0 0 0 0 0 0 0 0 0 0 2 5 6 5 11 26 39 42 43 48 58 62 58 51 45 39 35 34 37 38 35 31 26 21 14 10 9 7 5 3 3 2 3 3 3 3 3 3 3
0 0 0 0 0 0 0 0 0 0 1 4 7 10 22 43 57 56 53 54 58 59 53 48 46 45 42 39 40 42 39 34 28 21 13 9 8 6 4 3 3 3 3 3 3 3 3 3 2
0 0 0 0 0 0 0 0 0 0 1 5 9 18 36 56 64 63 58 54 54 52 47 43 43 46 46 47 51 53 48 41 34 25 17 12 10 8 6 4 3 3 3 3 3 2 2 1 1
0 0 0 0 0 0 0 0 1 1 2 6 13 26 46 60 64 62 56 52 49 48 46 43 41 43 47 55 63 63 56 48 38 28 20 15 12 9 7 5 4 4 4 3 2 1 1 1 1
0 0 0 0 0 1 1 1 2 2 3 7 17 34 52 63 65 60 52 47 44 44 45 45 44 44 48 59 66 65 59 50 38 27 21 16 12 9 7 6 6 5 4 3 1 0 0 1 2
0 0 0 0 1 2 2 1 2 2 4 11 24 40 54 63 64 57 48 42 41 39 39 42 45 46 50 57 61 61 53 43 34 25 19 15 11 8 6 6 6 5 4 2 1 0 0 1 2
0 0 0 0 1 2 2 1 1 2 7 18 31 42 52 59 57 49 44 41 39 35 34 37 42 44 47 49 51 48 39 30 23 18 14 11 8 6 4 5 5 5 3 1 0 0 0 1 2
0 0 0 0 0 1 1 0 0 2 10 23 32 40 47 51 49 44 42 44 41 36 33 35 37 39 40 37 34 30 26 20 14 9 8 8 6 4 3 4 5 4 2 0 0 0 0 0 1
0 0 0 0 0 0 0 0 0 2 12 23 30 36 41 42 42 42 41 42 41 37 34 34 34 34 33 27 20 16 16 13 7 4 4 4 3 3 3 3 3 2 1 0 0 0 0 0 0
0 0 0 0 0 0 0 0 1 3 10 20 27 32 35 34 35 36 35 35 35 33 31 32 32 32 28 23 15 11 9 6 3 1 1 1 1 2 2 2 1 1 0 0 0 0 0 0 0
0 0 0 0 0 0 1 1 3 4 9 16 23 28 28 25 26 28 28 28 29 28 27 28 29 28 26 23 18 11 6 3 2 0 0 0 0 1 1 1 0 0 0 0 0 0 0 0 0
0 0 0 0 0 1 2 3 5 6 8 12 18 22 21 17 18 21 22 22 23 25 25 24 22 21 21 22 19 13 7 4 2 0 0 0 0 1 2 1 0 0 0 0 0 0 0 0 0
0 0 0 0 1 2 2 3 5 6 7 8 12 15 15 13 13 15 17 17 19 21 21 18 15 13 15 17 16 11 7 5 3 1 1 1 1 2 2 1 0 0 0 0 0 0 0 0 0
0 0 0 0 1 1 1 2 3 5 6 6 7 9 9 9 8 10 12 14 16 17 15 13 9 8 10 11 10 7 5 4 3 3 2 2 1 1 1 0 0 0 0 0 0 0 0 0 0
0 0 0 0 0 0 0 1 2 3 4 5 5 5 6 5 5 6 9 11 13 12 11 9 8 7 8 8 7 5 3 2 2 2 2 1 1 0 0 0 0 0 0 0 0 0 0 0 0
0 0 0 0 0 0 0 0 1 3 3 4 3 3 4 3 3 4 6 8 9 8 7 8 8 7 6 5 4 3 1 1 1 1 1 0 0 0 0 0 0 0 0 0 0 0 0 0 0
0 0 0 0 0 0 0 0 1 2 3 3 3 3 2 2 2 2 3 4 5 4 5 6 7 7 5 3 2 1 0 0 0 0 0 0 0 0 0 0 0 0 0 0 0 0 0 0 0
0 0 0 0 0 0 0 1 1 2 3 2 2 1 1 1 0 1 1 1 2 3 3 4 5 5 4 2 0 0 0 0 0 0 0 0 0 0 0 0 0 0 0 0 0 0 0 0 0
0 0 0 0 0 0 1 2 2 2 1 1 1 0 0 0 0 0 0 0 1 2 3 3 3 3 2 1 0 0 0 0 0 0 0 0 0 0 0 0 0 0 0 0 0 0 0 0 0
0 0 0 0 0 0 1 2 3 2 0 0 0 0 0 0 0 0 0 0 0 1 2 2 2 1 0 0 0 0 0 0 0 0 0 0 0 0 0 0 0 0 0 0 0 0 0 0 0
0 0 0 0 0 0 1 2 2 2 1 0 0 0 0 0 0 0 0 0 0 0 1 1 1 0 0 0 0 0 0 0 0 0 0 0 0 0 0 0 0 0 0 0 0 0 0 0 0
0 0 0 0 0 0 0 1 1 1 1 0 0 0 0 0 0 0 0 0 0 0 0 0 0 0 0 0 0 0 0 0 0 0 0 0 0 0 0 0 0 0 0 0 0 0 0 0 0
0 0 0 0 0 0 0 0 0 1 0 0 0 0 0 0 0 0 0 0 0 0 0 0 0 0 0 0 0 0 0 0 0 0 0 0 0 0 0 0 0 0 0 0 0 0 0 0 0

GEFSSGP_con_probscp_090.txt.gz
Probability
0 0 0 0 0 0 0 0 0 0 0 0 0 0 0 0 0 1 1 3 13 30 41 45 51 50 44 40 38 37 36 33 28 22 17 11 6 2 0 0 0 0 0 0 0 0 0 0 0
0 0 0 0 0 0 0 0 0 0 0 0 0 0 0 0 1 2 3 8 20 36 44 48 55 58 53 49 48 46 45 43 38 32 25 17 8 3 1 0 0 0 0 0 0 0 0 0 0
0 0 0 0 0 0 0 0 0 0 0 0 0 0 0 1 2 5 10 17 29 42 47 54 62 65 63 60 57 55 56 55 50 43 36 25 14 5 1 0 0 0 0 0 0 0 0 0 0
0 0 0 0 0 0 0 0 0 0 0 0 0 0 0 1 4 11 18 24 33 39 44 54 63 67 67 65 62 61 62 62 59 52 44 34 21 9 3 1 0 0 0 0 0 0 0 0 0
0 0 0 0 0 0 0 0 0 0 0 0 0 0 1 3 7 15 23 26 29 36 42 51 61 65 65 64 64 64 65 66 64 58 49 42 32 18 7 3 2 1 1 0 0 0 0 0 0
0 0 0 0 0 0 0 0 0 0 0 0 0 1 4 7 12 18 23 24 27 35 45 54 58 59 60 60 61 64 66 67 65 60 54 48 40 26 13 7 5 3 2 1 0 0 0 0 0
0 0 0 0 0 0 0 0 0 0 0 1 1 2 5 10 14 19 23 24 27 35 45 51 50 48 49 52 56 60 65 66 65 63 58 53 42 27 15 10 7 5 3 1 0 0 0 0 0
0 0 0 0 0 0 0 0 0 0 1 2 3 5 9 14 19 24 28 29 30 36 44 48 43 39 39 43 51 59 63 63 63 62 58 48 34 20 12 10 8 6 4 3 1 1 0 0 0
0 0 0 0 0 0 0 0 0 0 1 2 4 8 14 20 24 31 35 36 37 42 49 51 46 39 35 39 50 58 59 56 52 51 48 36 22 13 10 13 14 10 5 3 3 2 1 0 0
0 0 0 0 0 0 0 0 0 0 0 2 6 11 18 22 25 30 36 41 46 52 56 57 52 46 42 46 56 58 55 49 42 40 39 32 24 17 15 20 19 12 7 4 3 2 1 0 0
0 0 0 0 0 0 0 0 0 1 2 5 8 13 18 21 24 27 33 42 50 56 58 56 53 52 52 56 63 63 58 53 46 44 46 44 40 32 26 23 19 12 9 5 3 1 0 0 0
0 0 0 0 0 0 0 0 1 3 6 8 11 14 17 20 22 27 34 42 50 54 53 52 53 56 59 65 68 67 64 61 57 57 58 55 50 42 33 27 19 14 12 9 4 1 0 0 0
0 0 0 0 0 0 0 0 1 3 6 9 14 18 20 22 26 31 37 43 49 52 51 51 55 59 64 68 69 68 66 63 61 61 58 54 48 43 38 32 25 18 16 14 8 4 2 2 1
0 0 0 0 0 0 0 0 0 2 4 10 18 24 26 28 33 39 42 45 49 52 52 52 56 61 66 68 67 65 65 62 60 58 55 49 44 42 39 34 30 24 22 20 15 11 9 6 5
0 0 0 0 0 0 0 0 1 1 3 9 18 26 30 32 37 42 46 48 51 54 52 53 57 61 64 65 63 61 60 59 58 58 56 50 45 43 40 36 34 33 31 28 25 21 18 13 9
0 0 0 0 0 0 0 0 1 1 2 7 13 22 29 32 35 40 47 53 57 57 54 54 57 59 61 61 58 55 53 53 56 58 57 52 47 46 43 40 40 40 38 33 30 28 23 15 10
0 0 0 0 0 0 0 1 1 1 3 6 12 18 24 27 30 35 42 50 56 57 54 53 55 56 55 54 51 46 43 45 48 49 50 49 47 47 48 47 46 44 40 35 31 29 24 16 12
0 0 0 0 0 0 0 1 1 1 4 8 12 17 19 21 23 28 34 41 46 48 48 48 50 51 48 45 43 39 36 35 34 34 35 38 39 40 44 48 47 43 38 34 31 28 23 17 14
0 0 0 0 0 0 0 0 0 1 4 8 12 15 16 16 18 23 29 32 34 35 37 39 41 43 43 42 42 38 32 27 22 21 22 24 26 29 33 37 39 37 33 31 28 24 18 14 13
0 0 0 0 0 0 0 0 1 3 5 8 11 12 12 14 17 21 24 25 25 27 29 30 32 35 37 40 40 35 26 19 14 12 14 16 17 20 22 24 26 25 23 23 21 17 12 10 9
0 0 0 0 0 0 0 0 2 5 6 8 9 8 9 12 17 18 18 19 20 22 25 25 25 27 29 31 31 27 20 14 9 8 9 9 10 13 15 16 15 14 13 13 11 8 7 6 5
0 0 0 0 0 0 0 0 2 4 5 6 6 6 7 11 14 14 14 15 16 18 20 22 22 21 22 22 22 21 18 12 7 5 4 3 4 6 8 9 9 8 7 6 5 4 3 2 1
0 0 0 0 0 0 0 0 1 2 3 4 5 5 6 8 11 12 12 13 14 14 16 18 19 17 16 17 18 19 17 11 5 2 1 0 0 1 3 4 4 3 3 3 3 2 1 0 0
0 0 0 0 0 0 0 0 0 1 2 2 3 3 3 5 7 9 9 10 12 12 14 15 15 13 10 11 13 14 12 7 2 0 0 0 0 0 0 1 1 1 1 2 1 1 1 0 0
0 0 0 0 0 0 0 0 1 2 2 1 1 1 1 2 3 3 4 5 7 10 11 11 10 9 7 7 7 8 6 3 0 0 0 0 0 0 0 0 0 0 0 0 0 0 0 0 0
0 0 0 0 0 0 0 1 2 2 2 1 1 0 0 0 0 0 1 1 3 5 6 6 6 6 6 5 4 3 2 0 0 0 0 0 0 0 0 0 0 0 0 0 0 0 0 0 0
0 0 0 0 0 0 0 1 1 1 1 1 2 1 0 0 0 0 0 0 0 1 2 3 4 4 4 4 2 1 0 0 0 0 0 0 0 0 0 0 0 0 0 0 0 0 0 0 0
0 0 0 0 0 0 0 0 0 0 0 0 1 0 0 0 0 0 0 0 0 0 1 1 2 2 2 2 1 0 0 0 0 0 0 0 0 0 0 0 0 0 0 0 0 0 0 0 0
0 0 0 0 0 0 0 0 1 1 0 0 0 0 0 0 0 0 0 0 0 0 0 0 1 1 1 1 0 0 0 0 0 0 0 0 0 0 0 0 0 0 0 0 0 0 0 0 0
0 0 0 0 0 0 0 1 2 3 1 0 0 0 0 0 0 0 0 0 0 0 0 0 0 0 0 0 0 0 0 0 0 0 0 0 0 0 0 0 0 0 0 0 0 0 0 0 0

GEFSSGP_con_probscp_096.txt.gz
Probability
0 0 0 0 0 0 0 0 0 0 0 0 0 0 1 2 3 5 11 27 57 75 70 64 60 48 34 25 18 12 7 5 4 4 4 4 4 4 5 6 6 5 3 1 0 0 0 0 0
0 0 0 0 0 0 0 0 0 0 0 0 0 0 2 3 5 9 16 35 65 77 70 65 63 55 43 33 25 16 10 7 5 5 6 6 6 6 6 5 5 4 2 0 0 0 0 0 0
0 0 0 0 0 0 0 0 0 0 0 0 0 1 3 5 10 18 27 47 72 77 68 69 72 67 57 47 36 25 17 12 10 9 10 11 11 10 7 3 2 2 1 0 0 0 0 0 0
0 0 0 0 0 0 0 0 0 0 0 0 0 3 7 10 17 26 35 50 65 65 62 71 80 77 69 59 48 38 28 23 20 18 17 18 17 15 10 5 2 1 1 0 0 0 0 0 0
0 0 0 0 0 0 0 0 0 0 0 0 0 5 13 17 24 30 30 38 48 50 55 69 80 81 75 67 60 54 47 41 37 32 29 29 27 22 15 10 6 4 3 1 0 0 0 0 0
0 0 0 0 0 0 0 0 0 0 0 0 1 8 17 25 30 29 25 26 33 42 53 65 74 78 75 71 69 69 66 62 57 51 45 42 37 29 20 16 13 8 5 3 1 0 0 0 0
0 0 0 0 0 0 0 0 0 0 0 0 1 10 26 35 33 28 25 25 30 42 53 60 64 68 70 72 75 76 76 73 69 64 57 50 41 30 22 19 16 11 6 3 1 0 0 0 0
0 0 0 0 0 0 0 0 0 1 1 1 3 15 35 44 36 28 25 27 33 45 53 54 54 57 60 65 72 75 76 75 71 66 60 51 36 24 18 18 17 11 5 2 2 1 0 0 0
0 0 0 0 0 0 0 0 1 1 1 2 6 20 38 44 36 28 27 32 43 53 54 48 45 46 46 52 62 68 69 69 65 59 54 45 27 16 13 17 19 13 5 3 3 2 0 0 0
0 0 0 0 0 0 0 0 1 1 2 5 11 22 34 39 36 32 34 43 53 60 54 43 40 40 39 48 63 63 58 58 55 50 45 34 21 13 15 24 29 20 9 7 5 3 1 0 0
0 0 0 0 0 0 0 0 1 2 5 10 16 23 30 33 35 36 40 49 59 63 56 45 43 41 41 55 69 62 53 50 48 45 39 29 22 21 28 37 36 25 15 11 9 5 2 0 0
0 0 0 0 0 0 0 1 2 4 8 12 18 25 30 33 36 40 46 56 64 68 62 54 53 50 52 65 70 61 55 52 49 49 43 34 31 32 38 43 36 24 15 10 9 6 2 1 1
0 0 0 0 0 0 0 1 3 6 9 11 17 25 33 39 42 47 56 66 71 72 68 63 61 60 64 72 70 63 63 60 57 57 50 40 38 39 41 43 35 23 15 11 7 6 6 7 6
0 0 0 0 0 0 0 1 3 7 9 11 16 25 35 43 47 54 64 72 75 72 67 63 62 65 70 73 72 69 69 67 64 62 54 43 41 43 44 44 40 30 25 21 15 15 18 18 15
0 0 0 0 0 0 0 1 5 9 11 14 19 28 36 42 47 53 62 70 72 69 64 59 57 62 68 71 69 67 67 66 64 59 52 43 40 43 45 46 47 42 40 39 34 33 35 30 23
0 0 0 0 0 0 0 3 7 10 13 18 25 33 38 40 42 47 53 59 63 65 63 59 58 62 67 67 63 58 57 56 53 49 44 38 35 38 42 44 48 49 49 47 44 44 43 34 25
0 0 0 0 0 0 1 5 9 11 14 22 31 37 38 38 38 42 46 50 56 61 63 64 66 67 65 58 51 45 41 39 37 35 34 31 30 33 37 38 43 46 45 41 40 41 39 30 22
0 0 0 0 0 0 2 5 10 12 15 26 35 37 36 33 33 37 42 46 51 57 60 63 66 65 59 49 39 32 26 24 24 25 26 25 26 27 28 31 34 37 37 35 34 32 28 21 16
0 0 0 0 0 0 1 6 10 12 17 29 34 32 30 28 27 32 37 42 47 51 54 57 58 57 52 44 36 28 22 20 20 21 19 17 18 19 20 22 27 31 33 33 30 26 19 13 11
0 0 0 0 0 0 1 5 9 12 19 30 32 30 27 24 24 27 32 37 41 44 46 48 50 50 46 41 36 30 25 21 18 16 13 10 10 13 14 16 20 25 28 26 24 20 14 7 5
0 0 0 0 0 0 1 3 7 13 22 29 30 29 27 24 23 25 27 29 32 34 37 38 41 43 41 38 35 32 27 21 15 11 8 6 7 8 10 11 13 15 16 16 15 14 9 4 1
0 0 0 0 0 0 0 2 7 14 23 28 28 26 26 25 26 26 24 23 24 27 28 31 34 35 35 35 35 32 26 19 13 8 5 4 5 6 7 8 7 8 8 7 6 6 4 1 0
0 0 0 0 0 0 0 1 5 12 21 29 29 26 25 27 26 23 21 20 21 22 23 25 26 26 26 28 30 28 22 15 9 5 3 2 2 3 4 5 4 4 3 3 2 2 1 0 0
0 0 0 0 0 0 0 0 3 10 20 30 33 29 26 24 20 16 15 16 17 18 18 18 18 18 18 19 19 18 14 10 6 3 1 1 0 1 1 2 1 1 1 1 1 1 0 0 0
0 0 0 0 0 0 0 2 7 14 22 29 31 27 22 18 13 9 8 9 10 12 13 12 12 13 13 12 10 8 7 6 4 2 1 0 0 0 0 0 0 0 0 0 0 0 0 0 0
0 0 0 0 0 0 0 3 11 19 24 25 22 18 15 11 7 5 4 3 4 5 7 7 8 9 9 7 6 4 4 4 2 1 0 0 0 0 0 0 0 0 0 0 0 0 0 0 0
0 0 0 0 0 0 0 3 9 16 18 16 12 9 8 6 4 3 2 1 1 1 2 3 4 5 5 4 4 3 3 2 1 0 0 0 0 0 0 0 0 0 0 0 0 0 0 0 0
0 0 0 0 0 0 0 1 5 10 10 7 6 5 4 4 4 2 1 0 0 0 0 0 1 2 3 2 2 2 2 1 0 0 0 0 0 0 0 0 0 0 0 0 0 0 0 0 0
0 0 0 0 0 0 0 1 4 7 7 5 5 4 4 3 2 1 0 0 0 0 0 0 0 1 1 1 1 1 1 0 0 0 0 0 0 0 0 0 0 0 0 0 0 0 0 0 0
0 0 0 0 0 0 0 2 5 8 8 7 6 5 4 2 1 0 0 0 0 0 0 0 0 0 0 0 0 0 0 0 0 0 0 0 0 0 0 0 0 0 0 0 0 0 0 0 0

GEFSSGP_con_probscp_102.txt.gz
Probability
0 0 0 0 0 0 0 0 0 0 0 0 2 4 7 7 4 3 3 7 14 17 16 16 18 16 12 8 7 8 10 11 10 9 9 8 7 5 4 3 2 1 0 0 0 0 0 0 0
0 0 0 0 0 0 0 0 0 0 0 1 3 6 10 9 6 3 4 10 18 21 20 20 23 23 19 14 10 10 11 10 9 9 9 8 6 4 3 2 1 0 0 0 0 0 0 0 0
0 0 0 0 0 0 0 0 0 0 0 1 4 8 11 11 8 6 12 21 25 25 22 25 30 33 30 23 17 14 13 11 9 9 9 7 5 3 2 1 0 0 0 0 0 0 0 0 0
0 0 0 0 0 0 0 0 0 0 1 3 7 11 14 16 16 20 32 39 36 29 27 31 38 41 38 32 25 22 19 16 12 10 9 6 3 2 1 1 0 0 0 0 0 0 0 0 0
0 0 0 0 0 0 0 0 0 0 1 5 12 19 23 28 36 45 50 50 45 41 40 42 45 47 45 40 35 33 28 22 17 14 11 7 4 2 0 0 0 0 0 0 0 0 0 0 0
0 0 0 0 0 0 0 0 0 0 2 7 16 26 34 43 54 58 54 50 50 54 55 52 48 47 47 46 45 44 40 31 24 20 16 13 8 4 1 1 0 0 0 0 0 0 0 0 0
0 0 0 0 0 0 0 0 0 1 4 10 20 31 41 50 58 59 55 53 56 61 62 56 47 42 43 46 49 51 47 41 33 28 22 16 11 7 4 3 1 0 0 0 0 0 0 0 0
0 0 0 0 0 0 0 0 1 4 9 15 25 36 45 53 61 66 64 64 64 62 61 58 50 43 42 44 47 49 47 45 40 35 29 21 15 11 8 6 2 0 0 0 0 0 0 0 0
0 0 0 0 0 0 0 1 3 8 13 20 30 41 49 58 70 76 75 73 70 63 58 57 54 50 46 43 44 46 47 46 44 41 36 29 21 15 12 7 2 0 0 0 0 0 1 1 1
0 0 0 0 0 0 0 1 4 9 16 23 33 43 52 63 74 78 75 73 70 63 55 54 55 53 49 46 46 47 47 47 46 44 38 30 22 16 12 9 6 3 1 0 0 0 0 1 1
0 0 0 0 0 0 0 1 5 11 17 23 31 41 50 59 67 70 69 69 68 61 53 50 51 51 49 49 51 50 48 45 42 39 34 26 18 13 11 12 13 11 6 3 2 1 0 0 1
0 0 0 0 0 0 1 2 7 12 17 23 30 39 45 47 51 56 61 64 64 59 50 45 45 44 44 48 51 50 46 41 35 32 29 22 15 10 8 11 15 15 12 7 4 2 1 0 0
0 0 0 0 0 1 2 4 7 12 18 24 32 40 43 41 40 45 53 58 58 55 50 44 40 35 36 42 45 43 39 35 30 28 24 17 11 6 5 8 12 14 12 7 4 2 1 0 0
0 0 0 0 0 1 3 6 7 12 21 28 33 38 41 40 38 41 47 51 50 48 47 43 37 31 30 35 35 32 30 28 25 21 17 11 6 3 2 5 9 10 8 4 2 1 1 0 0
0 0 0 0 0 1 3 4 7 14 24 30 33 36 37 37 36 38 41 44 44 41 38 37 36 32 29 28 27 23 23 21 17 13 9 5 3 2 1 3 5 5 5 3 1 0 0 0 0
0 0 0 0 0 0 1 3 7 16 25 33 37 37 34 31 30 32 36 39 39 35 30 29 32 32 28 25 20 17 18 14 9 6 5 2 1 1 1 2 1 2 3 2 1 0 0 0 0
0 0 0 0 0 1 2 6 11 19 29 37 39 37 33 27 25 27 31 35 34 30 27 24 26 28 26 22 16 15 15 11 6 4 5 3 1 1 2 2 1 1 2 1 0 0 0 0 0
0 0 0 0 0 1 5 11 18 24 31 37 37 34 32 28 24 24 26 28 29 26 22 19 18 21 21 15 12 12 12 10 7 6 7 5 3 2 3 3 3 3 2 1 0 0 0 0 0
0 0 0 0 0 1 5 14 20 25 29 31 31 31 32 30 25 23 23 24 26 24 20 15 13 14 14 10 9 10 10 9 9 8 7 6 5 5 4 4 3 3 2 1 0 0 0 0 0
0 0 0 0 0 0 5 11 16 21 26 27 28 30 30 27 24 22 21 21 23 23 19 14 11 11 11 9 8 9 9 9 9 7 5 4 5 6 6 5 3 2 2 1 0 0 0 0 0
0 0 0 0 0 0 3 7 11 18 25 27 27 27 24 20 19 18 17 16 17 18 17 14 11 10 9 10 10 10 8 8 7 5 3 3 4 4 5 4 2 1 1 0 0 0 0 0 0
0 0 0 0 0 0 1 3 7 15 23 25 24 21 16 12 10 11 11 11 11 12 12 11 10 9 8 9 11 9 7 6 5 4 3 3 3 3 4 3 1 0 0 0 0 0 0 0 0
0 0 0 0 0 0 0 0 3 9 16 19 18 15 11 7 5 5 7 7 8 9 9 9 7 6 6 8 8 7 6 4 4 3 3 3 3 3 2 2 1 0 0 0 0 0 0 0 0
0 0 0 0 0 0 0 0 1 4 8 12 12 10 7 5 3 3 4 5 6 7 7 5 4 4 4 5 5 5 4 3 3 3 3 3 2 1 1 1 0 0 0 0 0 0 0 0 0
0 0 0 0 0 0 0 0 0 1 4 7 6 5 4 3 3 3 3 4 5 5 3 2 2 3 3 3 3 3 3 3 3 3 3 2 1 0 0 0 0 0 0 0 0 0 0 0 0
0 0 0 0 0 0 0 0 0 0 1 2 2 1 1 2 2 2 2 3 3 2 1 0 1 2 3 2 2 2 3 3 3 2 1 1 0 0 0 0 0 0 0 0 0 0 0 0 0
0 0 0 0 0 0 0 0 0 0 0 0 0 0 0 0 0 1 1 1 1 0 0 0 1 2 3 2 1 2 3 2 2 1 0 0 0 0 0 0 0 0 0 0 0 0 0 0 0
0 0 0 0 0 0 0 0 0 0 0 0 0 0 0 0 0 0 0 0 0 0 0 0 1 2 2 1 1 1 1 1 1 0 0 0 0 0 0 0 0 0 0 0 0 0 0 0 0
0 0 0 0 0 0 0 0 0 0 0 0 0 0 0 0 0 0 0 0 0 0 0 0 0 1 1 0 0 0 0 0 0 0 0 0 0 0 0 0 0 0 0 0 0 0 0 0 0
0 0 0 0 0 0 0 0 0 0 0 0 0 0 0 0 0 0 0 0 0 0 0 0 0 0 0 0 0 0 0 0 0 0 0 0 0 0 0 0 0 0 0 0 0 0 0 0 0

GEFSSGP_con_probscp_108.txt.gz
Probability
0 0 0 0 0 0 0 0 0 0 0 0 1 3 3 2 1 0 0 2 7 12 15 14 11 8 8 9 11 15 20 26 29 25 20 16 12 9 6 3 1 0 0 0 0 0 0 0 0
0 0 0 0 0 0 0 0 0 0 0 1 2 3 3 3 2 1 0 3 9 15 18 19 17 13 10 10 12 15 20 25 27 25 21 15 11 9 6 3 1 0 0 0 0 0 0 0 0
0 0 0 0 0 0 0 0 0 0 0 1 3 4 4 5 4 2 3 9 18 22 23 26 26 22 16 15 15 17 21 24 25 24 21 15 11 10 7 4 1 0 0 0 0 0 0 0 0
0 0 0 0 0 0 0 0 0 0 1 2 4 6 7 6 5 4 8 18 29 33 31 33 36 33 26 22 21 22 23 23 22 22 21 17 14 13 10 5 1 0 0 0 0 0 0 0 0
0 0 0 0 0 0 0 0 0 0 1 3 6 10 12 11 8 9 15 25 37 42 40 40 44 42 34 29 28 28 27 25 23 21 21 21 18 16 14 9 4 1 0 0 0 0 0 0 0
0 0 0 0 0 0 0 0 0 2 3 6 10 16 20 19 16 18 24 30 39 48 49 46 46 44 41 39 36 35 35 31 27 24 24 23 21 19 18 14 7 2 1 0 0 0 0 0 0
0 0 0 0 0 0 0 0 2 4 7 10 14 20 24 26 28 32 36 37 41 50 53 49 44 42 44 45 44 44 42 37 31 27 25 24 22 21 21 18 11 4 1 0 0 0 0 1 1
0 0 0 0 0 0 0 0 2 6 11 15 18 22 28 37 45 52 52 46 43 48 52 48 43 41 42 43 45 48 46 40 33 28 25 24 23 23 24 21 16 8 3 1 1 1 0 1 2
0 0 0 0 0 0 0 0 2 8 15 22 27 30 39 54 64 68 64 53 45 46 47 45 42 40 39 40 43 47 48 45 41 35 31 30 27 25 24 22 17 11 6 3 3 2 2 3 4
0 0 0 0 0 0 0 1 2 9 17 25 33 41 52 64 70 68 61 51 45 45 45 43 42 41 41 42 45 47 49 50 49 46 42 38 31 26 24 20 15 12 11 10 9 8 7 6 6
0 0 0 0 0 0 0 2 4 8 14 20 31 44 55 62 63 58 50 42 40 43 43 42 43 44 45 48 50 50 50 50 50 49 46 39 29 25 24 19 16 16 17 17 18 16 13 10 9
0 0 0 0 0 0 2 4 7 9 13 19 29 42 52 56 54 47 40 35 34 38 40 40 43 46 50 54 56 54 49 47 45 44 43 36 27 22 20 19 18 19 20 21 20 18 15 12 11
0 0 0 0 0 1 4 7 10 12 17 25 35 42 48 50 45 39 34 31 31 34 35 36 40 45 49 53 56 54 48 44 41 39 38 34 27 20 16 16 17 18 18 17 16 14 13 12 10
0 0 0 0 0 1 4 7 12 15 20 29 37 40 41 41 37 34 33 30 30 31 31 32 38 41 42 44 48 48 42 38 35 32 29 27 23 17 14 13 13 12 11 11 10 9 9 8 6
0 0 0 0 0 0 2 5 9 14 20 28 32 33 31 31 31 31 31 28 27 29 29 29 32 33 32 34 36 35 31 27 26 23 20 18 15 13 13 11 8 6 4 4 5 5 5 4 2
0 0 0 0 0 0 0 2 6 10 16 23 27 26 25 25 25 24 24 23 24 27 25 24 24 24 24 24 24 23 20 18 17 15 12 11 11 12 12 9 5 3 1 0 2 3 3 2 1
0 0 0 0 0 0 0 1 4 7 13 20 23 23 22 22 19 16 14 15 21 24 21 18 16 15 15 16 15 15 13 12 10 8 7 7 9 12 11 6 3 3 1 1 1 1 1 1 0
0 0 0 0 0 0 0 1 4 8 12 17 21 22 21 19 16 12 8 10 15 17 15 12 10 10 11 12 13 12 10 8 6 5 4 6 9 11 10 6 4 4 3 3 2 1 0 0 0
0 0 0 0 0 0 0 1 4 7 9 13 18 20 19 17 14 10 7 7 9 9 8 7 6 7 9 10 11 9 7 6 4 3 3 5 8 10 10 8 7 6 5 4 2 1 0 0 0
0 0 0 0 0 0 0 1 4 6 8 11 14 15 14 14 12 9 7 7 6 5 4 4 4 5 6 6 6 5 4 3 2 1 2 5 8 9 9 8 7 6 6 3 1 1 0 0 0
0 0 0 0 0 0 0 0 2 5 8 10 10 8 9 10 9 8 6 5 4 3 3 3 3 3 3 3 3 3 2 2 1 1 2 4 6 6 6 6 5 5 5 3 1 0 0 0 0
0 0 0 0 0 0 0 0 1 4 7 9 7 5 5 6 6 5 4 3 3 2 2 2 1 1 1 2 2 2 2 2 2 2 2 3 4 4 4 4 4 4 3 1 0 0 0 0 0
0 0 0 0 0 0 0 0 1 3 5 6 5 4 3 3 3 4 3 3 2 1 1 1 0 0 0 1 1 1 1 1 1 1 2 3 3 3 3 3 3 3 1 0 0 0 0 0 0
0 0 0 0 0 0 0 0 0 1 2 2 2 2 2 3 3 3 3 3 2 1 0 0 0 0 0 0 0 0 0 0 0 0 1 2 3 3 3 3 3 2 1 0 0 0 0 0 0
0 0 0 0 0 0 0 0 0 0 0 0 0 0 1 1 2 3 3 3 2 1 0 0 0 0 0 0 0 0 0 0 0 0 1 1 2 2 3 3 3 2 1 0 0 0 0 0 0
0 0 0 0 0 0 0 0 0 0 0 0 0 0 0 0 1 1 2 2 1 0 0 0 0 0 0 0 0 0 0 0 0 0 0 0 1 1 1 2 2 2 1 0 0 0 0 0 0
0 0 0 0 0 0 0 0 0 0 0 0 0 0 0 0 0 0 1 1 0 0 0 0 0 0 0 0 0 0 0 0 0 0 0 0 0 0 0 1 1 1 0 0 0 0 0 0 0
0 0 0 0 0 0 0 0 0 0 0 0 0 0 0 0 0 0 0 0 0 0 0 0 0 0 0 0 0 0 0 0 0 0 0 0 0 0 0 0 0 0 0 0 0 0 0 0 0
0 0 0 0 0 0 0 0 0 0 0 0 0 0 0 0 0 0 0 0 0 0 0 0 0 0 0 0 0 0 0 0 0 0 0 0 0 0 0 0 0 0 0 0 0 0 0 0 0
0 0 0 0 0 0 0 0 0 0 0 0 0 0 0 0 0 0 0 0 0 0 0 0 0 0 0 0 0 0 0 0 0 0 0 0 0 0 0 0 0 0 0 0 0 0 0 0 0

GEFSSGP_con_probscp_114.txt.gz
Probability
0 0 0 0 0 0 0 0 0 0 1 3 4 3 2 2 1 0 0 1 6 12 14 16 16 13 8 10 16 21 23 24 23 21 16 11 8 6 4 1 0 0 0 0 0 0 0 0 0
0 0 0 0 0 0 0 0 0 0 1 2 4 5 5 4 3 2 0 2 6 10 12 15 17 15 12 15 22 27 30 32 33 30 22 17 16 14 8 3 1 0 0 0 0 0 0 0 0
0 0 0 0 0 0 0 0 0 0 0 1 4 6 6 6 6 5 3 3 6 8 10 14 17 16 15 20 29 37 39 41 43 39 31 26 24 21 16 9 3 1 0 0 0 0 0 0 0
0 0 0 0 0 0 0 0 0 0 0 1 3 6 8 9 10 9 8 7 7 7 8 11 15 16 16 21 32 43 46 46 45 40 34 32 30 27 22 15 8 3 1 0 0 0 1 1 0
0 0 0 0 0 0 0 0 0 1 2 3 5 8 12 14 14 14 13 10 8 7 7 9 11 13 17 25 36 46 51 49 45 39 35 35 34 31 27 20 11 5 3 1 0 1 3 3 2
0 0 0 0 0 0 0 0 1 3 5 6 8 14 21 23 20 17 13 10 7 6 7 8 9 11 17 27 39 48 52 54 51 45 40 37 35 33 29 22 12 7 4 2 3 5 6 5 5
0 0 0 0 0 0 0 1 3 5 8 9 12 21 31 34 28 19 13 10 7 7 8 10 10 12 17 25 36 45 51 55 56 54 48 41 36 32 26 20 14 10 7 5 7 9 8 7 7
0 0 0 0 0 0 0 2 5 8 13 19 24 31 42 45 36 26 20 15 11 10 12 12 12 14 16 19 28 38 46 51 55 54 49 41 33 26 21 18 16 13 10 8 10 10 9 8 7
0 0 0 0 0 0 0 2 6 10 19 32 42 47 53 53 45 37 32 26 20 17 18 16 15 16 16 17 24 32 37 41 44 42 38 32 25 19 17 19 21 16 11 11 10 10 9 8 7
0 0 0 0 0 0 0 1 4 9 20 37 49 52 53 52 48 44 40 35 29 24 22 20 18 18 19 22 28 32 33 34 33 31 29 27 25 21 19 25 25 17 11 12 12 11 8 7 6
0 0 0 0 0 0 1 2 4 10 22 36 44 45 44 46 46 42 38 35 32 29 25 21 21 22 22 26 33 34 35 34 32 31 32 34 35 31 29 32 31 23 18 18 20 16 9 6 6
0 0 0 0 0 0 2 5 8 15 26 34 38 39 39 41 42 39 33 31 33 32 27 25 28 32 32 33 36 36 35 34 34 34 35 37 39 38 38 40 38 34 32 33 35 29 19 12 10
0 0 0 0 0 1 3 6 9 16 26 32 34 37 40 40 39 37 31 29 31 32 30 32 39 45 46 44 42 38 35 32 31 32 32 34 38 41 43 45 45 44 45 46 46 42 32 23 18
0 0 0 0 0 1 2 4 8 14 22 28 30 33 37 37 36 34 30 27 28 30 31 34 42 48 50 47 44 40 38 34 30 29 31 33 38 41 42 44 46 48 48 49 49 46 39 31 25
0 0 0 0 0 0 1 3 7 13 19 23 25 27 30 32 34 33 29 26 26 28 30 31 36 43 45 43 41 39 39 37 33 30 31 32 35 38 39 40 41 44 44 47 50 48 42 34 28
0 0 0 0 0 0 0 2 6 11 15 18 20 22 25 28 31 32 31 29 27 27 28 28 30 34 39 40 38 36 35 35 33 29 26 26 29 32 34 34 33 34 36 41 46 46 42 36 32
0 0 0 0 0 0 1 3 6 9 11 15 19 21 23 25 27 29 30 29 27 26 25 25 25 27 31 35 34 32 30 29 28 25 21 21 23 26 27 26 25 26 29 33 35 38 38 34 31
0 0 0 0 0 0 1 4 6 7 9 12 16 19 21 22 22 22 23 23 22 22 21 21 22 23 25 28 30 27 25 24 23 19 15 15 15 17 19 18 18 21 23 24 26 29 28 26 24
0 0 0 0 0 0 2 5 6 6 6 7 11 15 18 17 15 14 16 16 15 16 18 20 20 19 21 24 27 25 22 21 18 14 10 8 7 8 11 13 15 17 18 18 19 21 20 17 16
0 0 0 0 0 1 3 5 4 3 3 4 7 11 13 13 12 13 13 14 12 10 12 15 17 17 17 20 22 21 19 15 11 8 6 4 2 3 6 11 13 14 14 14 14 16 15 12 11
0 0 0 0 0 1 2 3 2 1 3 5 6 9 12 14 15 15 13 10 7 5 5 8 11 13 14 15 15 15 14 10 7 5 4 2 2 2 5 8 10 12 12 11 11 12 11 9 8
0 0 0 0 0 0 1 1 1 2 4 5 6 9 12 16 17 15 10 5 2 2 2 4 7 9 11 10 9 10 10 9 6 5 3 2 2 2 5 7 8 10 11 10 9 8 8 6 6
0 0 0 0 0 0 0 0 1 2 3 5 7 9 12 13 13 11 6 2 0 2 3 4 5 7 7 7 7 7 7 7 6 4 2 1 1 2 4 6 7 9 10 9 8 7 6 6 6
0 0 0 0 0 0 0 0 1 2 2 3 6 9 9 9 7 5 2 1 1 2 3 3 4 5 5 5 5 5 5 4 4 2 1 0 0 1 3 4 5 7 8 8 7 7 6 6 6
0 0 0 0 0 0 0 0 1 2 1 2 5 8 8 6 4 2 1 1 1 3 3 3 3 4 5 4 4 4 3 3 2 1 0 0 1 1 3 3 4 4 5 6 6 6 5 4 4
0 0 0 0 0 0 0 1 1 2 3 2 4 6 6 4 2 0 0 1 2 2 2 2 1 1 2 3 3 3 3 2 1 0 0 1 2 3 3 3 3 3 3 4 5 5 4 3 2
0 0 0 0 0 0 0 1 2 3 3 3 3 3 4 2 1 0 0 1 1 1 1 1 0 0 1 1 2 2 1 1 0 0 0 1 2 2 3 3 3 3 3 3 4 4 2 1 1
0 0 0 0 0 0 0 1 1 2 2 3 2 2 2 1 0 0 0 0 0 0 0 0 0 0 0 0 1 1 0 0 0 0 0 0 1 1 1 2 2 2 2 2 2 2 1 0 0
0 0 0 0 0 0 0 0 0 1 3 3 2 2 2 1 0 0 0 0 0 0 0 0 0 0 0 0 0 0 0 0 0 0 0 0 0 0 0 1 1 1 1 1 1 1 0 0 0
0 0 0 0 0 0 0 0 1 2 3 2 1 2 2 1 0 0 0 0 0 0 0 0 0 0 0 0 0 0 0 0 0 0 0 0 0 0 0 0 0 0 0 0 0 0 0 0 0

GEFSSGP_con_probscp_120.txt.gz
Probability
0 0 0 0 0 0 0 0 0 0 0 1 2 4 9 11 7 4 9 26 38 26 13 11 10 6 2 0 0 0 0 0 0 0 0 0 0 0 0 0 1 1 0 0 0 0 0 0 0
0 0 0 0 0 0 0 0 0 0 0 1 3 7 11 13 11 10 17 33 36 22 12 10 10 7 4 2 1 1 1 0 0 0 0 0 0 0 1 1 1 1 0 0 0 0 0 0 0
0 0 0 0 0 0 0 0 0 0 1 2 6 12 16 16 17 20 30 37 31 20 13 12 11 10 7 5 4 3 2 0 0 0 0 0 0 2 3 2 1 1 0 0 0 0 0 0 0
0 0 0 0 0 0 0 0 0 0 1 4 11 19 24 25 25 30 37 35 26 20 16 14 14 11 9 9 8 6 3 2 1 1 1 2 3 5 5 3 1 0 0 0 0 0 0 0 0
0 0 0 0 0 0 0 0 0 0 2 7 18 29 35 35 33 31 31 27 23 22 19 18 17 12 9 11 11 10 7 6 6 7 7 7 7 8 6 3 1 0 0 0 1 1 0 0 0
0 0 0 0 0 0 0 0 0 1 4 11 24 37 39 36 31 24 21 20 23 23 19 17 17 13 11 13 14 16 16 16 18 18 17 15 14 13 8 4 2 1 0 0 1 2 1 0 0
0 0 0 0 0 0 0 0 1 2 7 14 28 41 41 34 26 20 18 21 25 23 16 12 12 11 11 13 18 24 28 31 33 34 31 26 22 18 13 8 6 4 3 2 2 2 2 0 0
0 0 0 0 0 0 0 0 2 5 10 18 30 41 45 37 28 25 25 27 30 26 15 8 7 6 5 8 18 28 34 39 44 46 43 37 28 21 15 14 13 11 7 5 4 3 2 1 0
0 0 0 0 0 0 0 0 2 7 15 25 35 42 44 38 33 33 33 33 34 29 18 8 5 5 4 7 15 24 28 32 39 45 45 38 29 20 16 20 25 20 12 9 7 5 3 2 2
0 0 0 0 0 0 0 1 4 9 19 31 38 42 40 38 37 40 41 40 40 34 21 12 11 11 10 13 18 20 21 23 27 34 36 31 24 20 22 31 39 31 19 13 10 8 5 4 4
0 0 0 0 0 0 1 4 8 15 24 32 38 39 39 41 43 44 46 47 46 40 29 22 21 22 22 24 25 23 22 22 22 26 29 25 22 24 32 43 45 37 25 18 15 11 6 5 6
0 0 0 0 0 1 3 7 12 20 25 30 34 36 38 41 43 44 45 47 47 42 36 32 33 35 37 38 36 33 32 27 25 27 29 27 26 30 39 45 42 33 25 22 18 12 7 8 10
0 0 0 0 0 1 4 7 11 17 21 25 29 34 37 37 37 38 40 43 45 42 38 38 43 48 51 52 49 46 42 36 34 34 33 35 36 36 39 41 37 29 26 26 21 13 11 14 15
0 0 0 0 0 1 3 6 8 11 14 18 23 29 34 35 35 34 35 39 42 41 39 42 48 54 58 58 57 53 47 43 42 42 39 39 42 42 41 41 39 35 33 32 25 17 18 20 20
0 0 0 0 0 1 2 4 5 6 10 14 19 26 33 37 38 37 37 38 41 43 43 45 48 53 56 56 56 54 50 47 47 47 44 40 40 43 44 43 43 40 37 34 28 25 26 26 22
0 0 0 0 0 0 2 4 4 5 8 12 17 25 34 38 39 41 42 41 43 45 47 46 47 50 53 53 51 51 51 51 51 48 43 37 35 37 40 42 42 37 33 30 27 27 29 25 20
0 0 0 0 0 0 1 4 4 4 8 13 19 25 30 33 36 39 40 40 42 45 46 46 47 49 51 50 48 48 49 50 49 44 36 31 28 30 35 38 37 32 29 26 23 23 22 18 14
0 0 0 0 0 0 1 4 5 5 8 15 21 25 25 28 32 33 34 35 36 39 40 41 42 45 48 49 49 49 47 46 44 38 31 27 26 27 31 34 33 30 28 25 22 20 17 13 10
0 0 0 0 0 0 1 4 6 5 8 16 24 27 27 28 30 29 27 26 28 31 32 31 35 39 43 47 50 49 47 44 40 34 30 27 26 26 27 28 28 28 27 24 21 19 16 11 9
0 0 0 0 0 0 1 3 5 7 11 18 26 30 32 31 27 23 20 19 22 25 25 25 29 34 37 41 44 45 43 39 34 29 26 24 22 22 22 23 23 24 23 21 18 15 13 10 8
0 0 0 0 0 0 0 2 5 10 15 19 25 31 34 31 25 19 16 16 19 21 20 21 24 28 30 33 38 40 39 34 28 23 20 19 18 18 18 18 18 19 18 17 14 12 11 9 7
0 0 0 0 0 0 0 1 6 15 18 18 21 27 32 32 27 21 18 16 17 17 16 18 20 23 24 28 33 35 33 28 22 18 17 16 14 13 13 12 12 12 12 12 11 10 10 9 7
0 0 0 0 0 0 0 1 8 18 19 17 19 26 31 33 30 24 18 14 13 12 11 13 15 17 19 21 25 27 24 19 17 16 15 13 11 9 8 8 7 7 7 8 9 9 9 8 7
0 0 0 0 0 0 0 2 10 17 18 19 25 30 31 30 28 21 14 10 8 7 7 8 10 11 12 14 16 17 16 14 13 13 12 10 8 6 5 4 4 4 4 5 7 7 7 7 6
0 0 0 0 0 0 0 5 13 17 19 24 30 31 28 25 21 16 10 6 4 3 5 5 5 6 7 9 10 11 11 11 11 10 9 7 5 3 3 3 3 3 3 4 4 5 6 6 6
0 0 0 0 0 0 1 7 15 19 21 27 32 29 25 21 15 9 5 3 1 1 3 3 3 3 3 5 5 6 7 7 7 7 5 3 1 1 2 3 3 3 3 3 3 4 5 6 6
0 0 0 0 0 0 2 6 11 16 22 27 29 26 21 16 10 4 2 1 0 0 1 1 1 1 1 1 2 2 3 2 2 2 1 0 0 1 2 3 3 3 3 3 3 4 4 5 5
0 0 0 0 0 0 1 3 5 11 21 26 24 19 15 10 5 1 0 0 0 0 0 0 0 0 0 0 0 0 0 0 0 0 0 0 0 0 1 2 2 2 2 3 3 3 3 3 3
0 0 0 0 0 0 1 2 4 11 20 23 19 14 10 6 2 0 0 0 0 0 0 0 0 0 0 0 0 0 0 0 0 0 0 0 0 0 0 1 1 1 1 1 2 2 2 1 1
0 0 0 0 0 0 0 2 7 13 18 20 17 12 8 5 1 0 0 0 0 0 0 0 0 0 0 0 0 0 0 0 0 0 0 0 0 0 0 0 0 0 0 0 1 1 1 0 0